Weather History for Columbus, NE

Change the Weather History Date:

Tuesday, January 22, 2013

  Actual Average Record
Temperature  
Mean Temperature 17 °F -  
Max Temperature 24 °F 36 °F 61 °F (1989)
Min Temperature 10 °F 13 °F -18 °F (1966)
Degree Days  
Heating Degree Days 48    
Moisture  
Dew Point 7 °F    
Average Humidity 67    
Maximum Humidity 79    
Minimum Humidity 46    
Precipitation  
Precipitation 0.00 in - - ()
Sea Level Pressure  
Sea Level Pressure 30.26 in    
Wind  
Wind Speed 7 mph (SE)    
Max Wind Speed 13 mph    
Max Gust Speed 17 mph    
Visibility 10 miles    
Events      
Averages and records for this station are not official NWS values.
T = Trace of Precipitation, MM = Missing Value Source: NWS Daily Summary

Daily Weather History Graph

Daily Weather History Graph

Search for Another Location

Airport:

Trip Planner

Search our weather history database for the weather conditions in past years. The results will help you decide how hot, cold, wet, or windy it might be!

Date:

Astronomy

Jan. 22, 2013 Rise Set
Actual Time 7:49 AM CST 5:33 PM CST
Civil Twilight 7:19 AM CST 6:03 PM CST
Nautical Twilight 6:45 AM CST 6:37 PM CST
Astronomical Twilight 6:12 AM CST 7:09 PM CST
Moon 1:56 PM CST (1/22) 4:12 AM CST (1/22)
Length of Visible Light 10h 44m
Length of Day
9h 44m
Waxing Gibbous, 83% of the Moon is Illuminated
Jan 22
Waxing Gibbous
Jan 26
Full
Feb 3
Last Quarter
Feb 10
New
Feb 17
First Quarter

Hourly Weather History & Observations

Time (CST) Temp. Windchill Dew Point Humidity Pressure Visibility Wind Dir Wind Speed Gust Speed Precip Events Conditions
12:15 AM 12.2 °F 0.7 °F -0.4 °F 57% 30.31 in 10.0 mi East 8.1 mph - N/A   Overcast
12:35 AM 12.2 °F 2.9 °F -0.4 °F 57% 30.31 in 10.0 mi East 5.8 mph - N/A   Overcast
12:55 AM 12.2 °F 1.7 °F 1.4 °F 62% 30.31 in 10.0 mi East 6.9 mph - N/A   Overcast
1:15 AM 12.2 °F 1.7 °F -0.4 °F 57% 30.31 in 10.0 mi East 6.9 mph - N/A   Overcast
1:35 AM 12.2 °F 1.7 °F 1.4 °F 62% 30.30 in 7.0 mi East 6.9 mph - N/A   Overcast
1:55 AM 12.2 °F 1.7 °F 1.4 °F 62% 30.30 in 8.0 mi East 6.9 mph - N/A   Overcast
2:15 AM 10.4 °F -0.4 °F 1.4 °F 67% 30.30 in 8.0 mi East 6.9 mph - N/A   Overcast
2:35 AM 10.4 °F -0.4 °F 3.2 °F 73% 30.31 in 10.0 mi East 6.9 mph - N/A   Overcast
2:55 AM 10.4 °F -0.4 °F 3.2 °F 73% 30.30 in 10.0 mi East 6.9 mph - N/A   Overcast
3:15 AM 10.4 °F 0.8 °F 3.2 °F 73% 30.30 in 10.0 mi East 5.8 mph - N/A   Overcast
3:35 AM 12.2 °F 1.7 °F 3.2 °F 67% 30.29 in 10.0 mi East 6.9 mph - N/A   Overcast
3:55 AM 12.2 °F 1.7 °F 3.2 °F 67% 30.29 in 10.0 mi East 6.9 mph - N/A   Overcast
4:15 AM 12.2 °F 0.7 °F 3.2 °F 67% 30.27 in 10.0 mi East 8.1 mph - N/A   Overcast
4:35 AM 12.2 °F 1.7 °F 5.0 °F 73% 30.28 in 10.0 mi East 6.9 mph - N/A   Overcast
4:55 AM 12.2 °F 1.7 °F 5.0 °F 73% 30.27 in 10.0 mi East 6.9 mph - N/A   Overcast
5:15 AM 12.2 °F 0.7 °F 5.0 °F 73% 30.27 in 10.0 mi East 8.1 mph - N/A   Overcast
5:35 AM 12.2 °F 1.7 °F 6.8 °F 79% 30.27 in 10.0 mi ESE 6.9 mph - N/A   Overcast
5:55 AM 12.2 °F 1.7 °F 5.0 °F 73% 30.28 in 10.0 mi East 6.9 mph - N/A   Overcast
6:15 AM 12.2 °F 0.7 °F 5.0 °F 73% 30.28 in 10.0 mi East 8.1 mph - N/A   Overcast
6:35 AM 12.2 °F 0.7 °F 5.0 °F 73% 30.29 in 10.0 mi East 8.1 mph - N/A   Overcast
6:55 AM 12.2 °F 2.9 °F 5.0 °F 73% 30.29 in 10.0 mi East 5.8 mph - N/A   Overcast
7:15 AM 12.2 °F 1.7 °F 5.0 °F 73% 30.30 in 10.0 mi East 6.9 mph - N/A   Overcast
7:35 AM 12.2 °F 0.7 °F 5.0 °F 73% 30.30 in 10.0 mi East 8.1 mph - N/A   Overcast
7:55 AM 12.2 °F 1.7 °F 6.8 °F 79% 30.30 in 10.0 mi East 6.9 mph - N/A   Overcast
8:15 AM 12.2 °F 0.7 °F 6.8 °F 79% 30.31 in 10.0 mi East 8.1 mph - N/A   Overcast
8:35 AM 12.2 °F 0.7 °F 6.8 °F 79% 30.30 in 10.0 mi East 8.1 mph - N/A   Overcast
8:55 AM 12.2 °F -0.2 °F 6.8 °F 79% 30.31 in 10.0 mi East 9.2 mph - N/A   Overcast
9:15 AM 12.2 °F -0.2 °F 6.8 °F 79% 30.31 in 10.0 mi East 9.2 mph - N/A   Overcast
9:35 AM 12.2 °F 1.7 °F 6.8 °F 79% 30.32 in 10.0 mi ESE 6.9 mph - N/A   Overcast
9:55 AM 14.0 °F 3.9 °F 8.6 °F 79% 30.32 in 10.0 mi SE 6.9 mph - N/A   Overcast
10:15 AM 14.0 °F 2.0 °F 8.6 °F 79% 30.32 in 10.0 mi ESE 9.2 mph - N/A   Overcast
10:35 AM 15.8 °F 6.1 °F 8.6 °F 73% 30.32 in 10.0 mi SSE 6.9 mph - N/A   Overcast
10:55 AM 15.8 °F 5.1 °F 8.6 °F 73% 30.32 in 10.0 mi SSE 8.1 mph - N/A   Overcast
11:15 AM 17.6 °F 6.4 °F 8.6 °F 68% 30.32 in 10.0 mi SSE 9.2 mph - N/A   Scattered Clouds
11:35 AM 19.4 °F 6.6 °F 8.6 °F 63% 30.31 in 10.0 mi South 12.7 mph - N/A   Clear
11:55 AM 19.4 °F 8.6 °F 8.6 °F 63% 30.30 in 10.0 mi SSE 9.2 mph - N/A   Clear
12:15 PM 19.4 °F 9.5 °F 8.6 °F 63% 30.29 in 10.0 mi South 8.1 mph - N/A   Clear
12:35 PM 21.2 °F 10.1 °F 8.6 °F 58% 30.28 in 10.0 mi South 10.4 mph - N/A   Clear
12:55 PM 21.2 °F 10.9 °F 6.8 °F 54% 30.27 in 10.0 mi South 9.2 mph - N/A   Clear
1:15 PM 21.2 °F 10.9 °F 8.6 °F 58% 30.25 in 10.0 mi South 9.2 mph - N/A   Clear
1:35 PM 23.0 °F 11.7 °F 6.8 °F 50% 30.23 in 10.0 mi SSE 11.5 mph - N/A   Clear
1:55 PM 23.0 °F 11.7 °F 8.6 °F 54% 30.23 in 10.0 mi South 11.5 mph - N/A   Clear
2:15 PM 24.8 °F 15.3 °F 8.6 °F 50% 30.22 in 10.0 mi South 9.2 mph - N/A   Clear
2:35 PM 24.8 °F 15.3 °F 6.8 °F 46% 30.22 in 10.0 mi SSE 9.2 mph - N/A   Clear
2:55 PM 24.8 °F 14.0 °F 8.6 °F 50% 30.22 in 10.0 mi South 11.5 mph - N/A   Clear
3:15 PM 24.8 °F 14.0 °F 8.6 °F 50% 30.22 in 10.0 mi SSW 11.5 mph - N/A   Clear
3:35 PM 23.0 °F 12.4 °F 8.6 °F 54% 30.21 in 10.0 mi South 10.4 mph 17.3 mph N/A   Clear
3:55 PM 23.0 °F 11.7 °F 8.6 °F 54% 30.22 in 10.0 mi SSW 11.5 mph - N/A   Clear
4:15 PM 21.2 °F 10.9 °F 8.6 °F 58% 30.22 in 10.0 mi South 9.2 mph - N/A   Clear
4:35 PM 21.2 °F 9.5 °F 8.6 °F 58% 30.22 in 10.0 mi SSW 11.5 mph - N/A   Clear
4:55 PM 21.2 °F 10.9 °F 8.6 °F 58% 30.21 in 10.0 mi SSW 9.2 mph - N/A   Clear
5:15 PM 19.4 °F 8.6 °F 8.6 °F 63% 30.22 in 10.0 mi SSW 9.2 mph - N/A   Clear
5:35 PM 19.4 °F 10.4 °F 8.6 °F 63% 30.21 in 10.0 mi SSW 6.9 mph - N/A   Clear
5:55 PM 19.4 °F 10.4 °F 8.6 °F 63% 30.21 in 10.0 mi SSW 6.9 mph - N/A   Clear
6:15 PM 19.4 °F 11.5 °F 8.6 °F 63% 30.21 in 10.0 mi SSE 5.8 mph - N/A   Clear
6:35 PM 19.4 °F 10.4 °F 8.6 °F 63% 30.21 in 10.0 mi SSE 6.9 mph - N/A   Clear
6:55 PM 17.6 °F 10.7 °F 8.6 °F 68% 30.21 in 10.0 mi SSE 4.6 mph - N/A   Clear
7:15 PM 17.6 °F 10.7 °F 8.6 °F 68% 30.21 in 10.0 mi SSE 4.6 mph - N/A   Clear
7:35 PM 17.6 °F 10.7 °F 8.6 °F 68% 30.21 in 10.0 mi SSE 4.6 mph - N/A   Clear
7:55 PM 17.6 °F 10.7 °F 8.6 °F 68% 30.21 in 10.0 mi SSE 4.6 mph - N/A   Clear
8:15 PM 17.6 °F 10.7 °F 8.6 °F 68% 30.20 in 10.0 mi SSE 4.6 mph - N/A   Clear
8:35 PM 17.6 °F 10.7 °F 8.6 °F 68% 30.20 in 10.0 mi SSE 4.6 mph - N/A   Clear
8:55 PM 15.8 °F 8.6 °F 8.6 °F 73% 30.19 in 10.0 mi SSE 4.6 mph - N/A   Clear
9:15 PM 17.6 °F 9.3 °F 10.4 °F 73% 30.18 in 10.0 mi South 5.8 mph - N/A   Clear
9:35 PM 17.6 °F 9.3 °F 10.4 °F 73% 30.19 in 10.0 mi SSE 5.8 mph - N/A   Clear
9:55 PM 17.6 °F 10.7 °F 10.4 °F 73% 30.19 in 10.0 mi SSE 4.6 mph - N/A   Clear
10:15 PM 17.6 °F 9.3 °F 10.4 °F 73% 30.19 in 10.0 mi SSE 5.8 mph - N/A   Clear
10:35 PM 17.6 °F 10.7 °F 10.4 °F 73% 30.19 in 10.0 mi SSE 4.6 mph - N/A   Clear
10:55 PM 17.6 °F 10.7 °F 10.4 °F 73% 30.19 in 10.0 mi South 4.6 mph - N/A   Clear
11:15 PM 17.6 °F 9.3 °F 10.4 °F 73% 30.19 in 10.0 mi South 5.8 mph - N/A   Clear
11:35 PM 17.6 °F 9.3 °F 10.4 °F 73% 30.19 in 10.0 mi SSE 5.8 mph - N/A   Clear
11:55 PM 17.6 °F 10.7 °F 10.4 °F 73% 30.19 in 10.0 mi SSE 4.6 mph - N/A   Clear